Location: Bryzozowice
(50.3667°N, 18.9667°E)
Time: 06:56:27
(UTC+00:00)

Meteor 2-2 Rocket - Pass Details

Date: 24 January 2020
Orbit: 853 x 928 km, 81.3° (Epoch: 24 February)

Event Time Altitude Azimuth Distance (km) Brightness Sun altitude
Rises 17:41:23 0° 348° (NNW) 3,589 7.6 -21.8°
Reaches altitude 10° 17:43:54 10° 351° (N) 2,644 6.8 -22.2°
Maximum altitude 17:49:57 72° 76° (ENE) 978 4.2 -23.2°
Drops below altitude 10° 17:55:57 10° 160° (SSE) 2,615 6.6 -24.1°
Sets 17:58:25 0° 163° (SSE) 3,546 7.3 -24.5°
